YAOGAN-35 03C (53320 NORAD) Tracking and Keplerian Element Data

This shows tracking and keplerian element data for the satellite.

Feedback or suggestion? Click here.




ElementValue
Catalog53320
NameYAOGAN-35 03C
Epoch Orbit1743
Epoch Day324.81116733
Epoch Year2022
RAAN126.078
Inclination34.9956
Eccentricity0.0004732
Argument of Perigee170.821
Mean Anonmoly321.9674
Mean Motion15.22869812
Decay Rate6.171E-05
L11 53320U 22088E 22324.81116733 .00006171 00000+0 25843-3 0 9995
L22 53320 34.9956 126.0780 0004732 170.8210 321.9674 15.22869812 17431



Live tracking and technical data element details for YAOGAN-35 03C (NORAD 53320). YAOGAN-35 03C can be tracked NOW for your location showing map with azimuth and elevation plus other details from your city location.







IsCatalogInMostPopularTable: catalog: 53320, numindb: 13
Update: records affected: 1



GetName: 53320 YAOGAN-35 03C

Hit Count: updated at: Thu, 08 Dec 2022 19:27:45 GMT